ROMMA est une association bénévole à but non lucratif. Votre soutien est indispensable : ADHERER à ROMMA ou FAIRE un DON

Le Versoud - (38, Isère)

Vallée du Grésivaudan (220 m)   Longitude: 05° 51' 44" E   Latitude: 45° 13' 06" N Station partenaire n°6
 

Détail journalier du     <<     >>

Température Humidité Pression Vent Dir Rafale Dir. rafale Ensol.
Heure (°C) (%) (hPa) (km/h) (km/h) (min)
01:00 25.65110123E24SE0
02:00 23.16710114SE34SSE0
03:00 22.8681012010SE0
04:00 20.47710113SE23ESE0
05:00 19.780101100---0
06:00 19.283101108SSE0
07:00 19.783101102SSE15
08:00 20.6781012010S5
09:00 22.570101202S20
10:00 24.165101105S25
11:00 25.760101103OSO40
12:00 26.854101103O60
13:00 29.649101105NNE55
14:00 28.7521010015NNO50
15:00 30.249101006NNO45
16:00 30.448101008NNE30
17:00 31.7411009013N60
18:00 30.845100905NNO10
19:00 29.853100902N15
20:00 28.954101002N10
21:00 27.060101000---20
22:00 25.258101000---0
23:00 23.465101100---0
minuit 22.864101100---0

Graphique du 07-07-2019

 

Serveur OMMA